Regional Weather Roundup
Issued by NWS

Home | Current Version | Previous Version | Graphics & Text | Print | Product List | Glossary On
Versions: 1 2 3 4 5 6 7 8 9 10 11 12 13 14 15 16 17 18 19 20 21 22 23 24 25 26 27 28 29 30 31 32 33 34 35 36 37 38 39 40 41 42 43 44 45 46 47 48 49 50
517
ASUS43 KFSD 292302
RWRSD

WEATHER ROUNDUP FOR SOUTH DAKOTA
NATIONAL WEATHER SERVICE SIOUX FALLS SD
600 PM CDT MON MAY 29 2017

NOTE: "FAIR" INDICATES FEW OR NO CLOUDS BELOW 12,000 FEET WITH NO
SIGNIFICANT WEATHER AND/OR OBSTRUCTIONS TO VISIBILITY.


SDZ001>005-009-010-012>017-300000-
NORTHWEST AND NORTH CENTRAL SOUTH DAKOTA

CITY           SKY/WX    TMP DP  RH WIND       PRES   REMARKS
BUFFALO          N/A     67  31  26 NW22G35   30.04F
FAITH            N/A     66  30  26 NW25G32   30.05F
MOBRIDGE       MOSUNNY   68  35  29 NW21      30.00S
$$

SDZ012>016-024>037-041>051-057-063-072>074-300000-
SOUTHWEST AND SOUTH CENTRAL SOUTH DAKOTA

CITY           SKY/WX    TMP DP  RH WIND       PRES   REMARKS
RAPID CTY ARPT SUNNY     70  28  21 N20G33    30.09F
PIERRE         MOSUNNY   69  33  26 NW16G35   30.01F
CUSTER         SUNNY     61  20  20 NW9G20    30.17F
ELLSWORTH AFB  SUNNY     69  27  20 NW23G33   30.09F
PHILIP         MOSUNNY   71  31  22 NW21G32   30.05F
PINE RIDGE     SUNNY     68  36  30 NW9       30.11F
SPEARFISH      FAIR      64  27  24 NW17G25   30.15S
WINNER         MOCLDY    69  39  33 NW12G23   30.04S
$$

SDZ004>011-016>023-039-040-300000-
NORTHEAST SOUTH DAKOTA

CITY           SKY/WX    TMP DP  RH WIND       PRES   REMARKS
ABERDEEN       PTSUNNY   65  36  34 NW22G32   29.97F
WATERTOWN      CLOUDY    60  42  51 NW16G29   29.95F
BROOKINGS      PTSUNNY   58  48  69 NW12      29.98R
SISSETON         N/A     59  49  69 NW14      29.92S
$$

SDZ017-020-022-023-036>040-048>070-300000-
SOUTHEAST SOUTH DAKOTA

CITY           SKY/WX    TMP DP  RH WIND       PRES   REMARKS
SIOUX FALLS    PTSUNNY   65  45  48 NW22G28   29.98S
HURON          MOSUNNY   66  39  37 NW16G24   29.97F
CHAMBERLAIN    PTSUNNY   68  39  35 NW10G18   30.02S
MITCHELL       MOSUNNY   68  40  35 W16       30.00F
YANKTON        MOSUNNY   67  43  41 NW16G26   30.02S
$$

ABBREVIATIONS USED IN REMARKS
   TC - TEMPERATURE IN CELSIUS
  WCI - WIND CHILL INDEX
   HX - HEAT INDEX
  VSB - VISIBILITY





USA.gov is the U.S. government's official web portal to all federal, state and local government web resources and services.